Location: Gugi
(45.4667°N, 11.1000°E)
Time: 07:15:34
(UTC+00:00)

USA 116 - Pass Details

Date: 17 November 2019
Orbit: 405 x 834 km, 97.9° (Epoch: 18 November)

Event Time Altitude Azimuth Distance (km) Brightness Sun altitude
Exits shadow 17:23:10 15° 26° (NNE) 1,820 6.0 -17.3°
Maximum altitude 17:26:58 52° 100° (E) 902 4.4 -18.0°
Drops below altitude 10° 17:31:57 10° 177° (S) 2,308 6.9 -18.8°
Sets 17:34:24 0° 182° (S) 3,264 7.8 -19.3°
